Terug naar catalogus

GSAT 2

ActiefCommunicatieGEO
NORAD 27807·PAYLOAD·🇮🇳 India

Gelanceerd May 8, 2003 vanaf Satish Dhawan Space Centre

Loading…

TLE

VersSource: Space-Track

Epoch: Sep 14, 2026, 04:18 UTC

1 27807U 03018A   26257.17922388 -.00000208  00000-0  00000-0 0  9999
2 27807  11.3458  40.8860 0010109 347.3902 189.6651  0.99859134 85325

Volg GSAT 2 in realtime met AllMySat

Download on the App Store